Weather History for V.C. Bird, Antigua

Change the Weather History Date:

Friday, November 2, 2012

  Actual Average Record
Temperature  
Mean Temperature 81 °F -  
Max Temperature 85 °F 83 °F 89 °F (1997)
Min Temperature 77 °F 74 °F 71 °F (2013)
Cooling Degree Days 16    
Growing Degree Days 31 (Base 50)    
Moisture  
Dew Point 71 °F    
Average Humidity 70    
Maximum Humidity 83    
Minimum Humidity 60    
Precipitation  
Precipitation 0.01 in - - ()
Sea Level Pressure  
Sea Level Pressure 29.92 in    
Wind  
Wind Speed 8 mph ()    
Max Wind Speed 14 mph    
Max Gust Speed -    
Visibility 8.9 miles    
Events      
Averages and records for this station are not official NWS values.
T = Trace of Precipitation, MM = Missing Value Source: Averaged Metar Reports

Daily Weather History Graph

Daily Weather History Graph

Search for Another Location

Airport:

Trip Planner

Search our weather history database for the weather conditions in past years. The results will help you decide how hot, cold, wet, or windy it might be!

Date:

Astronomy

Nov. 02, 2012 Rise Set
Actual Time 6:05 AM AST 5:35 PM AST
Civil Twilight 5:43 AM AST 5:57 PM AST
Nautical Twilight 5:17 AM AST 6:23 PM AST
Astronomical Twilight 4:52 AM AST 6:48 PM AST
Moon 8:35 PM AST (11/2) 9:05 AM AST (11/2)
Length of Visible Light 12h 14m
Length of Day
11h 29m
Waning Gibbous, 87% of the Moon is Illuminated
Nov 2
Waning Gibbous
Nov 6
Last Quarter
Nov 13
New
Nov 20
First Quarter
Nov 28
Full

Hourly Weather History & Observations

Time (AST) Temp. Heat Index Dew Point Humidity Pressure Visibility Wind Dir Wind Speed Gust Speed Precip Events Conditions
12:00 AM 80.6 °F 83.9 °F 69.8 °F 70% 29.92 in 6.2 mi East 10.4 mph - N/A   Partly Cloudy
1:00 AM 80.6 °F 83.9 °F 69.8 °F 70% 29.92 in 6.2 mi East 8.1 mph - N/A   Partly Cloudy
2:00 AM 80 °F - 70 °F 65% 29.90 in 17 mi East 8.1 mph - -   Widespread Dust
2:00 AM 80.6 °F 83.9 °F 69.8 °F 70% 29.89 in 6.2 mi East 8.1 mph - N/A   Mostly Cloudy
3:00 AM 78.8 °F - 71.6 °F 78% 29.89 in 6.2 mi ENE 5.8 mph - N/A   Mostly Cloudy
4:00 AM 78.8 °F - 71.6 °F 78% 29.89 in 6.2 mi SE 4.6 mph - N/A   Mostly Cloudy
5:00 AM 79 °F - 72 °F 75% 29.90 in 17 mi East 6.9 mph - -   Widespread Dust
5:00 AM 78.8 °F - 73.4 °F 83% 29.89 in 6.2 mi East 6.9 mph - N/A   Mostly Cloudy
6:00 AM 80.6 °F 83.9 °F 69.8 °F 70% 29.89 in 6.2 mi East 6.9 mph - N/A   Scattered Clouds
7:00 AM 80.6 °F 83.9 °F 69.8 °F 70% 29.92 in 6.2 mi East 5.8 mph - N/A   Partly Cloudy
8:00 AM 82 °F - 72 °F 65% 29.95 in 17 mi East 9.2 mph - -   Widespread Dust
8:00 AM 82.4 °F 87.2 °F 71.6 °F 70% 29.95 in 6.2 mi East 9.2 mph - N/A   Partly Cloudy
9:00 AM 84.2 °F 90.9 °F 73.4 °F 70% 29.95 in 6.2 mi East 11.5 mph - N/A   Partly Cloudy
10:00 AM 84.2 °F 90.9 °F 73.4 °F 70% 29.95 in 6.2 mi East 10.4 mph - N/A   Scattered Clouds
11:00 AM 85 °F - 73 °F 60% 29.96 in 17 mi East 12.7 mph - -   Widespread Dust
11:00 AM 84.2 °F 90.9 °F 73.4 °F 70% 29.95 in 6.2 mi East 12.7 mph - N/A   Scattered Clouds
12:00 PM 82.4 °F 88.2 °F 73.4 °F 74% 29.92 in 6.2 mi East 6.9 mph - N/A   Mostly Cloudy
1:00 PM 82.4 °F 87.2 °F 71.6 °F 70% 29.92 in 6.2 mi East 13.8 mph - N/A   Mostly Cloudy
2:00 PM 83 °F - 74 °F 67% 29.91 in 17 mi East 11.5 mph - -   Widespread Dust
2:00 PM 82.4 °F 88.2 °F 73.4 °F 74% 29.89 in 6.2 mi East 11.5 mph - N/A   Scattered Clouds
3:00 PM 84.2 °F 89.6 °F 71.6 °F 66% 29.89 in 6.2 mi East 12.7 mph - N/A   Scattered Clouds
4:00 PM 82.4 °F 88.2 °F 73.4 °F 74% 29.89 in 6.2 mi East 9.2 mph - N/A   Scattered Clouds
5:00 PM 81 °F - 70 °F 63% 29.91 in 17 mi East 8.1 mph - -   Widespread Dust
5:00 PM 80.6 °F 83.9 °F 69.8 °F 70% 29.89 in 6.2 mi East 8.1 mph - N/A   Partly Cloudy
6:00 PM 80.6 °F 83.9 °F 69.8 °F 70% 29.89 in 6.2 mi East 10.4 mph - N/A   Partly Cloudy
7:00 PM 80.6 °F 83.9 °F 69.8 °F 70% 29.92 in 6.2 mi East 9.2 mph - N/A   Partly Cloudy
8:00 PM 81 °F - 71 °F 64% 29.93 in 17 mi ENE 11.5 mph - -   Widespread Dust
8:00 PM 80.6 °F 84.6 °F 71.6 °F 74% 29.92 in 6.2 mi ENE 11.5 mph - N/A   Scattered Clouds
9:00 PM 80.6 °F 83.9 °F 69.8 °F 70% 29.92 in 6.2 mi East 9.2 mph - N/A   Partly Cloudy
10:00 PM 80.6 °F 83.9 °F 69.8 °F 70% 29.95 in 6.2 mi East 8.1 mph - N/A   Scattered Clouds
11:00 PM 80 °F - 70 °F 65% 29.96 in 17 mi East 10.4 mph - -   Widespread Dust
11:00 PM 80.6 °F 83.9 °F 69.8 °F 70% 29.95 in 6.2 mi East 10.4 mph - N/A   Mostly Cloudy